STARLINK-34224, 64251

Orbit data source: Space-Track

STARLINK-34224, 64251 is a payload satellite owned by SpaceX/Seattle (US) in LEO that was launched on Tue, 03 Jun 2025 UTC via an FALCON 9 launch vehicle from the Air Force Eastern Test Range (AFETR). Payload-class satellites include a variety of spacecraft equipped with specific instruments for various scientific and technological missions. These include communications satellites like Starlink; space stations such as the ISS; scientific satellites like the Hubble; Earth observation satellites from companies like Planet Labs, Umbra, and HawkEye 360; GPS; miniature CubeSats for education and research; and military/defense satellites.

Loading next visibility...
Identifier
64251, 2025-119U
Orbit
LEO
Country
Flag of USUS
Related business
Manufacturer
SpaceX/Seattle
Mission
Operational Commercial Communications
Bus & Motor
STARLINK V2MO, Unknown motor
Mass
575 kg wet, ~530 kg dry
Launch date (UTC)
2025-06-03 (1 year ago)
Launch vehicle
FALCON 9
Launch site
Air Force Eastern Test Range (AFETR)
Object type
Payload
Rocket body
Debris
Shape & HBR
Box + 2 Pan, 17.7 m
Radar Cross Section
36.964 m², Large (>1 m²)

Expand to show TLE details & history
Last TLE update: 16 hours ago

TLE from 16 hours ago
0 STARLINK-34224
1 64251U 25119U   26171.16002781  .00013101  00000-0  48448-3 0  9995
2 64251  43.0033  88.1109 0001490 265.2784  94.7898 15.27599670 59840
Epoch: 2026-06-20T03:50Z
TLE epoch observation values (Epoch: 2026-06-20T03:50:26.402Z)
Latitude
Longitude
122.12225°
Altitude
482.851 km
Speed
7.626 km/s
True Right ascension
05h 52m 26s
True Declination
0° 00' 00"
Sunlit
Object was in daylight at epoch
Visualization orbit readout
Latitude
Unknown
Longitude
Unknown
Altitude
Unknown
Speed
Unknown
Apparent Right ascension
Unknown
Apparent Declination
Unknown
Sunlit
N/A
Visualization observer readout
Local Sidereal Time
07:15:40
Azimuth
Unknown
Elevation
Unknown
Doppler factor
Unknown
Orbital elements
Apogee altitude
485.957 km
Perigee altitude
483.912 km
Semi-major axis
6,863.072 km
Eccentricity
0.00015
Inclination
43.0033°
RAAN
88.1109°
Arg. of periapsis
265.2784°
True anomaly
94.80681°
Mean anomaly
94.7898°
Eccentric anomaly
94.79831°
Mean motion
3.81738 °/min
Orbital period
94.31 mins
BSTAR
0.00048448
Loading maneuver chart data...
Computing Atmospheric mass density...
Loading historical data...
Loading historical data...
Loading historical data...
Loading historical data...
Loading historical data...
Loading historical data...
Loading historical data...

Documentation

Showing up to 5 results
|